Flag for Germany Weather past 2 weeks in Bad Nauheim, Hesse, Germany

Now
63 °F

Sunny.


Feels Like: 63 °F
Forecast: 49 / 67 °F
Wind: 8 mph from Southwest

Location: Giessen

Current Time: Jul 29, 2015 at 12:38:30 PM

Latest Report: Jul 29, 2015 at 12:00 PM


Visibility: 31 mi

Pressure: 29.76 "Hg

Humidity: 50%

Dew point: 44 °F

Location of Bad NauheimLocation

Historic Weather in Bad Nauheim — Graph

°F

Bad Nauheim temperature yesterday

Maximum temperature yesterday: 67 °F (at 4:00 PM)
Minimum temperature yesterday: 54 °F (at 6:00 AM)
Average temperature yesterday: 61 °F

Past Weeks' High & Low Weather Summary

 TemperatureHumidityPressure
High96 °F (Jul 17, 5:00 PM)100% (Jul 19, 7:00 AM)30.13 "Hg (Jul 19, 7:00 AM)
Low49 °F (Jul 26, 5:00 AM)19% (Jul 17, 4:00 PM)29.59 "Hg (Jul 27, 10:00 AM)
Average69 °F66%29.90 "Hg
* Reported Jul 14 11:00 AM — Jul 29 11:00 AM, Bad Nauheim, Weather by CustomWeather, © 2015

Note: Actual official high and low records may vary slightly from our data, if they occured in-between our weather recording intervals... More about our weather records

Advertising

Bad Nauheim weather history for previous 24 hours

 ConditionsComfort  
Time TempWeatherWind HumidityBarometerVisibility
11:00 AM
Wed, Jul 29
62 °FPartly sunny.8 mph57%29.78 "Hg37 mi
10:00 AM59 °FPartly sunny.8 mph63%29.80 "Hg25 mi
9:00 AM58 °FOvercast.7 mph71%29.80 "Hg31 mi
8:00 AM56 °FOvercast.3 mph74%29.82 "Hg40 mi
7:00 AM55 °FScattered clouds.5 mph76%29.82 "Hg37 mi
5:00 AM55 °FOvercast.5 mph76%29.82 "Hg37 mi
4:00 AM54 °FOvercast.3 mph78%29.82 "Hg31 mi
3:00 AM53 °FPassing clouds.5 mph79%29.83 "Hg31 mi
2:00 AM53 °FClear.3 mph75%29.83 "Hg31 mi
1:00 AM58 °FOvercast.6 mph65%29.83 "Hg37 mi
11:00 PM
Tue, Jul 28
59 °FOvercast.2 mph68%29.80 "Hg40 mi
10:00 PM60 °FOvercast.3 mph61%29.79 "Hg34 mi
9:00 PM62 °FOvercast.5 mph56%29.78 "Hg40 mi
8:00 PM63 °FOvercast.6 mph52%29.77 "Hg43 mi
7:00 PM64 °FOvercast.8 mph47%29.76 "Hg43 mi
6:00 PM65 °FOvercast.9 mph45%29.76 "Hg37 mi
5:00 PM66 °FOvercast.10 mph45%29.75 "Hg34 mi
4:00 PM67 °FOvercast.12 mph43%29.74 "Hg19 mi
3:00 PM65 °FOvercast.9 mph50%29.75 "Hg22 mi
2:00 PM66 °FPartly sunny.12 mph47%29.75 "Hg17 mi
1:00 PM63 °FOvercast.10 mph53%29.75 "Hg25 mi
12:00 PM63 °FOvercast.10 mph53%29.74 "Hg25 mi
Weather by CustomWeather, © 2015

See weather overviewHow to use our weather pages